Theta_e
312 313 313 313 312 312 313 313 312 310 309 308 306 305 305 306 306 306 307 307 308 308 308 311 310 307 304 304 304 305 306 307 309 312 316 317 308 308 312 311 314 326 326 326 327 330 336 335 334 338 343 347 346 348 350 351 355 361 364 363 361 360 364 368 371 368 365 367 365 363 364 365 366 363 362 363 363 362 363 362 357 355 352 351 352 351 351 351
312 312 312 312 312 313 313 313 312 311 309 309 307 305 305 305 305 306 307 307 308 308 310 312 311 309 306 305 305 306 308 309 312 316 321 314 313 310 309 310 312 326 330 329 329 330 335 337 334 333 340 345 343 347 352 351 354 359 363 364 361 363 367 366 367 367 368 370 364 364 365 363 364 363 362 364 363 362 363 361 357 355 352 351 351 351 351 351
312 311 311 312 312 312 313 313 312 311 309 308 307 306 305 305 305 306 306 308 308 309 311 312 311 310 308 307 307 309 311 313 323 333 328 317 318 312 309 310 315 327 328 326 326 325 326 331 331 330 337 341 338 344 351 352 355 357 361 365 363 363 364 364 368 370 369 368 364 364 365 364 364 362 363 365 363 362 363 360 357 355 353 351 350 350 351 351
312 311 311 311 311 312 312 312 312 311 310 309 308 306 306 305 305 306 306 308 308 309 311 311 311 311 309 309 310 312 314 320 335 336 327 320 317 313 310 314 325 333 329 325 324 321 320 324 328 329 335 339 334 337 345 349 355 358 360 364 364 361 361 364 369 369 366 364 364 365 365 366 364 362 364 364 365 365 362 359 356 355 353 351 349 350 351 352
312 311 311 311 311 311 312 311 311 310 310 309 308 307 306 306 305 306 306 307 308 309 311 312 311 311 311 311 313 315 318 330 331 326 326 319 313 312 311 322 333 335 330 326 323 320 320 323 328 330 335 340 336 335 338 340 347 356 358 359 359 358 358 363 366 364 363 363 365 365 364 365 363 363 364 362 365 366 362 359 356 352 351 350 349 351 351 351
312 311 311 311 311 311 311 310 309 309 309 309 308 307 307 306 306 306 306 307 308 309 310 312 311 311 312 311 315 317 322 328 322 322 326 316 311 312 316 329 334 329 328 324 321 321 322 326 330 332 335 338 338 337 339 335 339 352 355 354 354 356 357 361 363 361 362 365 366 365 363 363 364 365 364 362 366 367 362 360 355 351 349 349 350 351 351 350
311 310 311 311 310 310 310 309 309 309 308 308 308 308 307 307 307 306 306 307 308 309 309 311 312 312 312 312 316 318 323 327 319 321 323 313 312 314 320 333 332 323 323 322 319 319 323 328 332 335 336 338 339 338 338 336 338 347 350 349 349 353 358 359 362 362 362 364 365 364 363 363 365 366 363 363 365 364 363 360 354 350 349 349 350 350 350 350
310 310 311 311 310 310 309 309 309 308 308 309 309 308 308 308 307 307 307 307 308 309 309 310 311 313 313 312 315 321 326 326 319 324 322 313 317 316 318 328 328 322 320 321 319 318 322 327 332 334 336 340 341 338 338 339 340 343 345 345 345 350 354 355 361 363 361 363 364 363 363 363 365 365 363 363 363 362 363 360 354 351 350 349 350 350 350 350
310 310 310 311 310 309 309 309 308 309 309 309 309 309 309 309 308 308 307 308 308 309 309 310 311 313 313 312 315 322 325 322 321 325 320 315 319 318 318 321 323 321 318 319 319 318 321 324 328 332 335 338 336 335 338 341 345 344 342 343 344 346 347 353 365 364 362 363 362 363 364 366 366 364 365 364 361 361 361 358 354 352 351 350 350 350 350 350
310 310 310 310 310 309 309 309 308 309 309 309 309 310 310 310 310 309 308 308 308 310 309 310 313 313 312 314 319 324 322 319 323 326 319 317 320 320 321 322 321 320 318 317 317 318 320 321 324 327 331 333 332 334 337 341 345 340 339 340 340 341 339 351 368 363 362 364 361 364 367 367 364 365 369 364 360 360 359 358 355 352 352 350 350 349 349 350
309 310 310 310 310 309 309 309 309 309 309 310 310 310 311 311 310 310 309 308 309 310 309 311 314 313 312 315 323 328 323 321 324 325 319 317 320 320 322 322 321 320 318 316 315 317 319 320 322 325 328 330 332 333 335 338 337 333 336 333 334 346 347 353 366 362 363 364 361 364 366 364 362 367 370 362 359 359 358 358 355 353 352 350 350 349 349 350
310 310 310 310 309 309 309 309 309 309 309 310 311 312 312 312 312 311 310 309 310 310 310 313 314 313 315 318 322 325 321 322 325 325 320 318 320 320 320 322 320 320 319 316 315 316 319 320 321 326 329 329 332 333 333 330 329 331 331 328 343 366 364 358 362 361 362 363 361 362 362 364 364 365 366 359 358 358 356 357 355 353 351 350 350 349 349 349
310 310 310 310 309 309 309 309 309 309 310 311 312 313 313 313 313 312 311 310 311 310 311 314 312 312 318 323 321 319 316 319 324 325 320 317 318 319 320 322 321 320 320 317 316 316 318 319 319 323 325 326 329 330 328 325 327 330 329 339 362 375 368 363 361 359 362 360 359 358 358 364 365 362 362 357 356 357 356 356 355 353 351 350 350 348 349 349
310 310 310 310 309 310 310 309 310 310 310 311 313 314 314 315 314 313 312 311 311 311 312 314 314 316 321 326 321 320 321 321 325 326 322 320 320 321 322 324 323 320 319 319 318 318 318 318 318 321 322 324 327 326 326 327 329 330 329 340 358 360 360 365 361 360 363 359 358 356 354 364 366 361 359 356 355 356 356 356 354 353 351 350 350 348 348 348
310 310 310 310 310 310 310 310 310 310 311 312 314 315 316 317 317 314 312 312 311 312 313 314 317 321 326 329 323 322 323 324 327 326 323 322 323 327 325 324 325 323 320 320 319 318 318 317 317 321 322 324 324 324 329 334 333 333 328 330 342 348 355 365 361 361 363 359 359 355 355 366 366 360 359 355 355 356 356 356 354 354 353 350 350 348 347 348
309 309 310 310 309 310 310 310 310 311 311 313 314 316 317 318 317 315 312 312 311 311 314 317 318 321 327 331 325 321 322 325 324 323 325 323 324 330 327 325 327 324 322 321 319 318 318 317 319 322 321 323 327 328 333 336 338 340 329 326 330 333 349 365 363 360 361 361 361 357 362 368 362 359 359 355 354 356 356 356 354 354 354 351 349 348 347 347
309 309 309 309 310 310 310 310 311 311 312 313 315 317 317 316 315 313 312 312 312 314 317 321 320 319 324 325 322 322 323 322 319 320 324 324 325 329 327 328 327 323 322 321 319 319 318 318 322 325 324 325 331 333 335 334 334 338 331 326 323 325 348 363 363 362 359 362 364 361 366 367 360 360 359 356 356 355 356 356 354 353 353 351 349 348 347 347
309 309 309 309 310 310 310 311 311 311 312 313 316 317 315 315 314 314 313 313 314 317 320 321 321 322 322 319 320 322 321 319 316 317 322 326 328 328 328 330 327 324 324 321 320 320 320 322 325 329 330 329 332 332 335 337 334 332 329 324 321 323 338 352 362 365 360 363 367 363 365 365 362 362 359 358 357 356 356 355 354 353 352 352 349 348 348 347
309 309 310 310 310 311 311 311 311 312 313 314 316 317 317 317 317 316 315 317 318 321 326 327 327 326 321 320 321 320 318 317 315 314 319 326 329 327 326 328 326 325 325 323 323 321 323 329 329 330 332 333 333 331 335 341 335 330 328 324 322 321 322 335 351 359 359 364 367 364 365 364 363 364 360 358 358 357 357 355 354 354 353 353 351 349 348 347
309 310 310 310 311 311 311 312 311 312 313 314 314 316 317 318 320 319 317 321 323 320 322 327 330 328 322 322 320 317 315 314 313 314 315 321 324 321 320 323 326 326 326 326 324 322 326 331 330 329 332 335 334 331 332 335 331 328 328 325 325 322 323 329 332 345 360 363 364 365 364 364 362 362 361 358 359 359 358 356 355 355 353 353 352 350 348 347
309 310 310 311 311 311 312 312 312 312 314 314 314 316 317 315 318 318 315 318 319 315 316 322 325 325 320 319 318 315 314 314 313 314 314 316 318 315 316 325 329 328 328 329 326 326 328 329 329 333 337 337 333 332 331 329 328 327 327 326 324 323 326 330 326 340 360 361 362 366 362 364 362 360 360 359 359 360 359 357 355 355 354 353 352 351 349 348
310 310 311 311 311 312 312 312 312 312 313 315 315 315 315 314 315 314 312 315 315 313 314 317 316 318 317 316 316 314 313 314 314 313 314 315 315 314 320 329 333 332 330 329 330 331 331 329 330 335 337 333 329 329 327 328 328 327 327 324 324 326 327 329 325 335 355 359 363 366 362 363 361 357 359 359 360 359 358 358 356 355 355 353 352 351 350 349
311 311 311 311 312 312 312 312 312 312 313 315 315 314 314 315 315 313 311 314 315 313 314 315 314 316 316 314 314 314 314 314 313 313 314 315 315 316 324 331 332 333 329 330 334 332 331 332 334 335 333 331 331 328 327 328 327 327 328 323 324 327 324 325 324 333 355 361 362 365 362 363 361 358 358 357 358 359 357 357 357 356 355 353 352 351 351 350
311 311 311 312 312 312 313 312 311 312 313 314 315 315 314 315 316 313 314 316 316 315 314 314 314 316 318 314 311 314 315 313 312 313 315 316 317 318 324 331 331 331 330 333 335 332 333 333 333 334 332 331 332 330 328 328 329 329 328 325 326 327 324 326 325 329 346 351 355 361 357 360 364 360 361 359 357 358 358 358 358 357 354 353 353 351 351 351
312 312 312 312 313 313 312 311 311 312 313 314 315 315 314 315 315 313 317 321 319 318 315 312 313 315 314 311 310 311 312 312 312 313 316 317 319 320 322 325 328 332 331 331 333 333 334 331 330 332 332 330 330 333 332 329 329 329 328 327 328 329 328 328 324 321 326 326 337 352 347 355 366 360 361 363 360 360 359 359 359 357 355 354 354 352 350 351
312 312 312 313 313 313 313 313 312 312 314 315 314 315 315 315 316 313 319 323 319 318 316 311 312 314 311 310 310 311 312 312 311 313 317 317 318 319 320 320 325 331 331 330 330 331 331 328 329 331 331 331 330 331 332 330 327 326 332 330 327 330 328 327 324 319 319 318 328 346 342 347 360 360 363 364 363 363 360 360 359 357 356 354 354 353 351 351
313 313 313 314 314 313 315 315 312 313 315 315 314 315 315 315 315 312 318 325 320 315 314 311 311 311 311 310 310 311 312 312 313 313 315 317 314 316 320 321 321 321 323 328 328 328 329 327 328 329 328 330 330 329 330 330 328 328 333 328 327 331 328 328 323 318 322 323 333 351 344 340 348 356 363 365 364 366 362 361 360 357 357 354 354 353 351 351
314 314 314 315 315 313 313 313 312 315 315 314 314 315 316 316 315 314 320 326 321 313 312 311 310 311 310 310 310 313 312 312 315 314 312 314 313 315 319 320 322 319 319 328 331 327 324 325 329 329 328 328 329 330 330 327 328 331 330 327 329 329 326 328 320 318 327 324 331 348 343 339 347 355 362 365 364 367 365 362 360 359 357 354 353 353 352 351
314 315 315 316 315 313 313 311 312 315 314 313 315 316 315 314 316 320 322 321 316 311 312 311 310 311 311 311 312 313 313 312 315 313 312 314 312 313 316 315 319 318 315 324 331 325 317 321 330 328 327 330 329 329 328 327 330 329 326 326 326 325 327 329 321 322 330 326 331 343 338 338 347 353 359 363 362 365 365 362 360 358 357 355 353 352 352 352
315 316 317 316 314 313 313 312 312 314 314 315 316 316 315 317 325 328 322 317 313 311 312 311 311 312 312 313 312 313 313 313 314 313 313 313 312 313 314 313 315 316 317 320 321 320 316 319 327 327 326 327 325 326 325 326 328 325 326 324 322 328 331 334 338 334 331 332 337 342 338 336 340 347 357 363 365 364 363 362 360 358 357 355 353 352 351 351
317 318 318 316 314 314 314 314 314 315 316 317 316 316 315 322 332 332 322 315 313 313 312 312 313 313 312 312 312 312 313 312 314 315 314 312 311 312 313 316 315 317 323 322 315 316 317 316 319 322 322 320 318 321 321 322 324 323 328 323 320 330 330 327 335 328 322 330 335 335 335 331 333 341 347 355 360 360 360 362 360 358 357 356 354 352 351 350
318 318 319 317 315 315 315 316 316 316 318 317 317 322 324 324 325 324 320 315 313 313 312 312 313 312 313 313 311 311 312 313 313 313 313 312 311 311 312 314 313 314 318 317 315 317 317 315 316 318 320 317 315 320 320 319 323 324 328 324 319 325 323 319 324 321 320 327 324 324 330 331 334 335 333 338 341 342 350 357 357 359 356 355 355 352 351 351
318 318 319 318 317 316 316 317 316 317 319 317 319 326 329 326 318 318 321 315 312 312 311 312 312 311 313 314 312 311 311 312 312 312 312 311 311 312 311 311 311 314 316 316 316 317 315 316 317 316 319 317 314 318 317 317 320 321 323 321 319 322 320 320 325 322 320 323 318 318 328 331 329 326 330 337 335 332 340 347 351 357 358 355 354 353 351 350
319 319 319 318 317 317 317 317 318 319 317 314 319 323 321 319 317 319 319 314 312 313 311 311 311 311 313 313 312 312 312 312 311 312 313 312 313 313 312 311 310 312 316 318 318 317 317 318 315 315 315 315 315 315 313 314 316 320 323 322 322 325 323 321 325 323 319 320 319 315 322 325 319 321 333 336 336 339 340 342 344 349 356 356 353 352 352 350
319 318 317 316 316 316 316 317 318 319 316 312 315 318 314 314 316 315 314 312 312 312 310 310 311 313 314 312 312 311 313 314 310 311 312 311 313 313 312 312 311 311 315 317 317 317 320 318 313 314 314 313 315 314 314 315 315 319 322 319 318 323 326 323 323 328 324 319 320 316 320 326 321 323 333 330 332 342 342 342 343 342 348 355 355 354 352 351
318 316 314 313 314 314 314 317 316 317 317 313 314 314 312 312 312 311 311 312 311 309 312 314 312 313 314 313 312 311 312 313 312 313 313 311 312 312 311 312 311 311 313 315 316 316 320 318 312 315 317 314 314 313 314 314 317 320 318 318 317 319 328 325 319 329 327 317 320 320 320 329 327 323 328 328 330 340 343 342 342 342 344 351 356 355 353 352
317 316 315 313 314 314 314 316 315 315 316 315 315 315 313 310 310 310 311 312 309 309 314 317 313 312 314 313 312 312 313 313 312 314 313 312 313 311 311 313 312 311 312 313 314 313 316 318 315 314 317 317 313 313 315 312 314 320 318 318 317 315 324 326 321 327 326 317 319 322 324 331 330 326 329 329 329 339 344 341 340 343 343 346 351 353 354 354
317 317 315 313 313 313 315 316 314 315 317 317 319 318 313 310 310 309 310 310 310 310 314 315 313 311 313 314 312 311 313 314 313 314 313 313 313 311 311 313 313 312 311 313 315 314 314 316 316 314 314 317 314 313 317 315 313 318 317 316 317 318 322 323 321 321 321 321 320 320 330 335 329 326 327 328 334 341 343 340 340 341 342 343 346 348 353 355
318 319 317 312 312 314 315 315 312 314 316 317 322 321 312 310 311 310 310 310 309 312 313 313 313 312 312 313 313 311 313 314 313 314 315 313 312 312 311 311 313 312 312 314 315 316 316 315 316 317 313 314 316 315 317 316 314 315 314 312 315 321 321 317 321 320 320 327 323 320 332 336 329 327 327 332 341 342 340 340 340 340 340 342 344 346 349 353
319 323 318 311 313 315 313 312 312 314 316 315 317 316 311 310 310 310 311 310 310 312 312 312 313 314 313 312 312 311 312 313 313 314 314 312 312 313 311 310 312 311 313 315 313 316 322 318 315 317 315 314 315 315 315 315 314 312 312 312 311 316 319 318 319 319 321 329 329 332 337 331 326 327 329 338 343 339 339 340 338 338 338 339 342 344 346 350
318 323 318 311 312 314 312 312 314 316 317 315 313 313 313 312 311 311 312 311 310 311 310 311 312 312 313 313 312 312 313 313 313 314 313 312 313 314 313 311 311 311 314 318 314 316 322 321 318 318 316 314 314 313 312 312 311 310 311 311 310 312 319 326 322 318 323 326 327 337 337 325 321 324 330 341 341 336 337 336 336 337 335 336 339 340 343 348
321 320 316 312 311 312 310 313 318 318 315 313 311 311 314 314 311 311 313 312 311 311 311 311 311 311 312 312 312 314 316 315 314 315 315 313 312 313 312 312 311 312 316 318 316 319 322 322 323 320 315 314 313 312 313 312 310 311 310 309 311 311 315 325 324 320 325 325 324 335 336 326 323 325 333 341 339 336 336 333 334 335 333 335 335 336 339 344
330 321 314 311 311 312 311 312 316 315 312 311 310 310 311 312 311 312 313 314 313 312 313 312 311 313 312 311 313 314 315 315 314 315 315 314 313 312 312 313 313 314 319 319 317 320 320 319 322 324 325 324 318 313 314 313 310 312 311 309 310 309 310 316 320 322 327 323 323 333 332 324 325 328 334 339 337 337 336 332 332 332 332 334 333 334 336 337
333 325 322 315 309 311 315 315 315 313 311 311 310 310 311 310 312 313 313 315 314 313 315 313 312 314 312 312 314 313 313 316 315 314 315 315 315 315 315 314 314 316 318 319 319 318 314 316 321 327 330 328 322 319 318 315 313 313 311 310 310 310 310 314 317 326 331 322 320 331 333 326 324 328 334 334 334 337 335 332 333 330 330 332 331 333 333 333
328 324 325 319 310 311 316 316 317 315 314 314 311 310 311 310 311 312 313 314 314 314 316 314 312 314 314 313 313 312 313 316 315 315 316 316 315 317 317 314 314 316 316 317 321 321 317 316 321 330 330 322 321 324 321 317 315 313 311 311 311 310 311 315 319 327 329 321 322 331 330 323 320 327 334 333 332 335 333 332 333 330 329 330 330 331 331 331
325 323 323 322 315 312 313 314 316 317 316 319 316 311 312 312 310 311 313 313 313 314 315 314 314 316 315 315 315 314 314 315 316 318 318 316 315 316 317 315 314 316 316 315 320 324 322 316 317 326 327 319 319 321 319 317 315 312 312 313 313 312 312 317 323 325 322 319 325 332 325 315 319 331 334 331 331 333 331 331 331 329 329 329 329 330 330 330
325 320 319 322 319 317 316 313 315 318 316 318 316 311 312 313 312 312 312 312 313 315 315 314 316 317 316 316 317 316 316 317 318 319 316 315 316 317 317 315 314 316 315 314 318 325 325 318 315 319 318 314 315 316 314 315 313 312 313 314 314 314 312 314 318 320 319 318 326 338 329 314 320 334 333 329 330 331 329 329 329 328 328 328 329 330 329 329
320 318 316 317 316 317 316 313 314 317 317 320 318 313 313 314 313 313 312 312 315 316 315 315 316 317 316 318 319 317 318 319 318 316 315 314 317 320 318 314 313 316 316 313 317 323 323 317 314 315 315 314 314 314 314 314 312 312 315 314 315 316 313 312 314 317 320 318 321 331 325 316 324 333 331 327 328 328 326 327 326 326 327 326 327 329 328 328
322 321 318 317 316 316 316 316 317 315 317 324 322 315 313 314 313 312 312 314 315 315 317 316 314 315 319 324 325 319 318 319 316 314 315 314 314 316 316 315 314 315 316 314 314 318 321 319 315 315 315 314 314 314 314 314 313 314 315 314 315 315 313 312 312 314 316 316 318 320 317 318 326 329 328 327 326 325 324 325 325 325 326 325 326 327 327 328
323 320 320 323 323 319 321 323 322 318 317 322 320 315 313 313 312 311 312 313 312 312 316 316 314 315 319 325 326 318 317 320 316 314 315 314 315 316 315 315 314 315 318 316 313 316 318 317 318 320 317 314 314 315 314 314 315 314 315 315 315 314 315 314 312 313 314 315 316 314 315 324 327 326 328 327 325 324 323 324 324 324 324 325 325 325 326 327
316 314 318 328 326 319 320 322 321 320 319 319 318 315 315 315 313 311 311 310 311 312 315 316 316 317 318 321 320 314 317 323 320 316 318 316 316 316 315 314 312 313 317 315 314 318 319 317 319 323 320 315 314 314 315 316 315 313 314 315 314 314 315 315 318 322 322 321 320 318 322 332 330 325 327 327 324 324 324 323 324 324 323 323 324 324 324 325
315 313 315 323 322 316 319 321 320 319 316 316 317 315 315 315 314 313 311 310 312 312 314 318 319 317 316 317 315 311 315 321 319 315 316 316 315 315 315 315 313 312 315 315 313 317 322 320 318 319 321 320 316 316 317 314 312 313 315 313 313 315 316 319 326 330 327 326 327 326 328 330 327 325 326 326 325 325 324 323 324 324 324 323 322 322 323 323
Wind_Speed
19 19 19 19 20 19 20 20 19 18 17 16 16 14 13 13 14 14 14 14 14 13 12 13 13 10 8 8 9 8 8 8 8 7 10 13 15 14 10 12 17 16 19 20 20 17 9 7 7 7 8 3 1 2 4 3 1 1 1 1 2 2 2 2 2 2 3 4 6 7 5 6 7 4 2 2 5 5 4 4 4 6 8 11 18 26 27 25
20 20 20 20 21 20 20 20 20 19 18 17 16 15 14 14 13 12 13 14 14 12 9 11 12 10 8 7 8 7 7 8 8 11 16 15 10 13 14 14 17 21 24 23 23 21 12 6 8 7 5 2 1 2 4 3 4 3 1 1 3 3 3 3 2 2 2 4 7 6 5 5 7 6 3 4 6 6 6 6 7 10 11 14 21 26 25 24
20 21 21 21 21 21 21 21 20 20 19 18 17 15 15 15 13 12 12 12 13 10 7 9 11 10 8 6 6 5 5 5 5 9 9 8 13 15 17 18 18 24 27 25 25 22 16 14 13 8 4 1 1 3 4 3 4 3 2 2 4 4 4 3 2 2 2 6 9 6 5 5 5 5 3 5 8 7 7 7 9 12 12 14 18 21 23 23
21 21 21 22 22 22 22 21 21 20 20 19 18 17 16 15 14 12 11 10 12 10 6 7 9 10 8 6 4 5 4 3 3 5 3 2 14 19 21 21 21 26 26 23 22 18 16 17 12 5 3 2 0 1 3 3 2 2 3 3 4 3 3 3 1 2 3 7 8 6 6 6 4 3 3 9 9 4 6 7 10 15 16 17 16 18 21 21
21 22 22 22 22 22 22 22 21 21 20 19 18 18 18 17 14 13 10 8 10 9 6 5 7 8 7 6 5 5 3 1 3 3 5 3 14 24 25 24 24 26 23 21 20 15 16 14 8 3 2 2 2 1 2 4 2 2 4 5 6 4 4 3 2 4 5 5 6 6 6 6 4 3 5 10 8 4 5 5 10 16 18 19 18 17 18 18
22 22 22 22 22 22 22 22 22 22 21 20 19 19 19 18 16 13 10 7 8 8 7 5 5 7 6 5 5 4 2 1 5 4 5 2 18 27 27 26 25 22 20 22 20 15 13 10 6 4 3 1 3 3 3 4 4 4 4 5 7 6 6 3 4 5 5 6 7 6 4 5 6 4 5 6 3 2 4 5 10 14 18 22 20 18 16 15
22 23 22 22 22 23 22 22 22 22 22 22 21 21 20 19 17 13 9 7 7 7 7 7 5 5 5 4 4 3 2 4 6 1 1 7 22 28 27 27 25 21 20 22 17 11 10 9 7 5 4 2 2 4 3 3 5 5 5 6 8 7 8 5 4 5 5 7 6 5 4 6 7 6 5 4 3 3 4 6 10 14 19 21 17 16 15 14
23 23 23 22 22 22 22 22 23 23 24 23 23 22 20 19 17 13 8 6 7 7 6 7 6 5 4 2 1 3 1 6 4 5 4 14 25 26 26 25 24 21 21 21 16 11 9 10 9 4 4 4 3 4 4 3 4 6 8 7 6 6 8 6 5 6 5 5 5 6 6 5 3 4 5 5 4 4 5 6 10 14 16 16 15 15 14 14
23 23 23 23 23 23 22 23 23 24 25 25 24 23 21 19 16 13 8 5 6 7 6 6 5 3 2 1 2 2 3 4 4 8 9 19 26 25 24 22 24 23 19 18 17 14 9 8 8 5 5 5 3 3 3 3 3 6 9 8 6 8 8 5 6 8 7 4 6 8 5 1 1 4 5 5 5 5 6 7 11 15 15 14 14 15 14 14
24 24 24 23 23 23 23 24 24 26 26 26 26 23 21 18 15 12 7 5 5 7 6 6 5 2 4 2 4 1 4 3 4 10 12 22 26 25 21 19 26 26 17 14 15 13 7 6 7 4 4 3 2 3 3 4 3 4 6 9 9 11 10 6 8 8 6 4 7 8 4 2 1 1 2 5 6 6 7 8 11 15 15 14 14 13 13 14
24 24 24 23 24 24 24 25 26 27 28 28 27 24 20 18 15 11 7 5 5 6 5 6 4 4 5 2 4 3 2 3 6 12 14 22 25 24 22 20 25 26 19 12 13 15 8 7 8 3 1 2 2 2 3 4 3 4 5 7 8 7 6 4 8 7 6 3 5 7 5 2 0 2 2 7 8 7 9 10 11 14 13 13 14 13 11 12
24 24 24 24 25 25 26 26 28 29 30 29 27 24 20 18 13 9 7 6 6 5 6 5 3 6 3 1 3 7 2 7 5 12 15 20 22 22 22 21 24 26 22 13 11 17 12 9 8 3 2 1 1 1 2 4 4 5 4 4 7 6 4 3 7 7 5 3 6 9 5 1 5 3 3 9 9 8 11 10 11 13 12 12 13 11 9 12
24 24 24 26 26 26 27 28 29 30 31 29 27 24 20 16 11 9 7 7 6 5 7 4 5 7 2 1 6 8 2 5 2 10 16 20 19 19 19 20 22 23 23 16 13 17 15 9 5 2 2 1 1 2 3 5 3 3 2 1 3 6 3 2 5 5 4 3 9 8 1 4 9 6 5 9 9 10 12 11 11 12 11 11 11 10 10 12
24 25 26 27 27 27 28 29 30 31 31 28 26 23 18 13 9 7 7 8 7 9 9 6 7 6 2 5 5 2 4 2 3 10 16 19 16 13 15 17 18 19 17 13 9 13 18 11 1 1 2 1 1 3 5 5 3 2 1 1 2 2 3 2 5 6 3 2 8 5 1 4 7 7 7 8 10 12 13 11 11 11 10 11 11 11 10 12
25 27 27 27 28 28 29 29 30 31 30 27 24 19 14 11 6 6 8 9 10 12 10 8 8 4 1 7 5 1 3 3 6 13 16 19 16 10 13 16 15 15 13 9 5 7 17 11 0 0 2 1 1 4 4 4 3 2 0 2 2 1 3 3 4 6 3 2 6 2 1 4 5 7 9 9 10 11 13 12 12 12 11 11 11 11 10 11
27 28 28 27 28 29 29 29 29 30 29 25 20 14 12 9 3 3 7 10 11 12 9 7 7 4 1 4 1 2 4 3 5 10 15 20 18 10 12 14 10 10 10 9 6 5 13 9 1 2 1 2 0 1 3 4 4 3 1 2 3 1 1 2 2 5 5 6 6 4 2 3 3 5 9 10 11 11 12 12 13 12 11 10 10 11 10 10
28 29 28 28 28 28 28 28 27 28 27 22 14 10 11 8 8 10 11 12 12 10 6 4 5 3 3 5 1 1 3 3 4 6 16 20 17 11 13 10 6 9 6 6 6 3 7 6 2 3 1 1 2 3 2 2 2 3 2 1 2 1 1 1 1 4 6 7 6 7 4 3 2 3 8 10 11 11 11 12 13 12 10 9 9 10 11 11
29 29 28 28 28 28 28 26 26 26 23 18 10 9 11 12 12 14 16 15 10 6 3 1 3 2 3 6 3 1 3 4 6 2 13 17 17 14 13 8 7 10 5 1 3 2 4 3 2 2 1 3 3 4 3 3 3 1 1 2 1 2 1 1 2 4 7 5 6 6 6 7 2 4 7 8 11 11 10 12 12 12 11 9 8 10 11 12
29 29 27 28 28 27 27 25 25 23 19 15 6 7 9 9 8 9 13 12 5 2 0 1 2 1 2 4 5 6 9 7 5 2 11 15 16 13 9 10 10 9 4 2 2 4 4 2 3 4 4 4 4 5 6 6 5 6 4 4 2 2 2 3 3 4 9 6 5 7 8 10 5 6 8 8 10 10 9 10 10 10 11 10 8 8 10 12
30 29 28 28 27 27 26 24 23 18 15 13 4 5 4 4 3 3 2 3 3 4 2 3 5 2 4 5 5 8 9 4 1 3 11 14 15 11 6 6 6 5 4 5 3 3 4 3 5 6 5 5 6 7 8 5 5 5 4 3 3 1 4 5 3 4 9 6 6 9 9 9 6 6 9 9 9 9 9 10 11 12 11 11 10 9 11 12
30 29 28 28 27 27 24 22 21 14 10 11 6 4 2 2 2 3 4 3 5 7 6 6 7 5 7 7 5 5 4 2 3 1 9 14 14 12 3 2 5 2 3 5 4 3 3 6 6 4 6 6 5 7 6 4 3 2 3 2 1 2 4 6 4 4 7 5 5 7 7 9 7 7 8 10 10 11 12 12 13 14 12 11 12 11 10 9
30 29 29 28 27 26 23 22 17 9 7 7 7 5 2 2 4 3 2 4 7 5 6 5 4 6 9 9 8 4 2 2 4 4 5 9 8 8 1 3 6 3 2 3 4 4 3 5 4 4 6 5 3 4 4 3 3 2 2 2 1 3 4 5 4 2 5 5 3 4 6 8 8 7 9 11 12 12 13 13 12 13 12 12 13 11 10 9
30 30 29 28 27 24 22 21 12 5 7 5 5 5 2 7 9 2 3 2 6 4 3 3 3 4 5 5 6 5 3 2 1 3 4 7 4 5 4 4 5 4 3 4 5 6 4 4 4 5 5 5 2 3 4 1 1 3 3 3 2 3 1 2 4 3 4 5 1 3 4 5 5 5 8 11 12 11 11 12 10 10 12 13 14 11 10 12
30 30 28 27 26 22 22 18 5 4 8 3 4 5 6 11 10 3 2 0 4 5 3 4 4 4 3 2 4 7 3 3 3 2 5 7 4 3 4 4 5 4 3 5 6 6 5 5 4 6 5 5 3 1 4 1 2 2 4 4 3 3 4 5 3 4 1 2 1 3 2 4 4 6 6 8 9 9 9 10 10 10 11 10 11 11 10 12
30 29 27 26 24 22 21 11 2 7 9 1 4 5 10 12 8 2 2 2 2 5 3 2 1 2 3 1 4 5 1 1 3 4 4 7 7 3 2 2 4 4 5 5 6 4 5 5 4 6 4 5 4 3 3 5 2 3 3 7 7 5 6 5 3 5 4 3 3 2 2 5 3 5 6 5 7 9 9 11 12 11 11 10 11 12 12 11
30 28 26 24 22 22 16 4 3 12 5 4 3 8 11 12 7 1 3 3 2 4 2 0 1 1 2 0 2 2 3 1 3 1 1 4 6 5 2 1 1 3 6 4 4 2 2 2 5 6 4 5 5 4 4 6 3 3 4 8 9 7 6 5 0 2 1 2 4 1 3 3 4 3 5 5 8 10 10 12 13 11 10 11 11 11 12 12
29 27 25 22 20 19 10 1 7 9 1 1 7 10 12 12 4 3 3 4 2 2 1 0 0 0 1 1 1 4 2 3 2 4 4 4 1 3 4 3 1 2 3 4 2 3 2 2 3 4 4 4 4 4 5 7 6 3 5 6 8 8 7 6 3 3 3 2 4 3 3 1 4 4 5 7 9 9 10 12 13 12 12 12 12 12 13 13
28 25 23 19 16 13 6 5 8 3 2 6 9 11 14 9 0 3 3 2 1 2 0 1 1 1 1 1 3 4 2 3 2 1 4 10 7 2 4 4 6 4 2 5 3 5 2 4 4 4 4 3 5 5 6 8 5 5 6 6 7 7 6 5 5 5 2 2 4 4 2 1 4 5 2 6 8 9 12 14 13 13 13 14 14 14 14 14
27 23 20 16 11 6 3 5 5 2 5 10 11 14 13 5 2 3 2 1 2 2 0 1 1 1 2 3 4 3 1 1 3 2 5 12 11 4 3 2 4 4 2 5 5 5 1 4 7 6 4 5 6 6 8 9 5 5 6 6 4 4 3 3 4 3 1 2 4 5 3 2 4 4 1 4 5 9 13 12 12 14 14 15 15 15 15 13
26 21 17 13 8 4 4 4 3 4 9 11 14 15 8 2 4 4 2 1 2 2 1 2 1 1 3 3 3 4 4 3 2 3 5 6 10 9 2 0 4 4 1 4 2 3 3 2 4 5 4 6 6 5 7 11 8 4 4 3 3 2 3 3 2 2 3 1 5 7 6 4 2 4 3 5 5 8 10 9 11 14 14 15 15 14 15 14
24 18 14 12 7 3 3 3 5 8 11 13 16 12 3 2 3 4 2 1 2 3 3 3 2 2 5 5 2 4 4 5 6 6 5 5 8 11 6 4 5 4 3 4 2 4 6 3 1 2 1 0 0 1 2 4 5 4 3 4 3 1 3 3 4 2 2 4 6 5 5 5 1 4 3 5 7 5 5 8 12 16 17 16 15 14 15 14
20 15 12 11 7 4 3 4 8 11 12 14 12 6 3 2 3 2 1 3 2 3 3 3 3 3 4 5 6 6 5 4 6 6 5 5 7 7 6 4 2 2 2 2 2 3 3 1 3 4 3 6 4 1 3 4 4 5 4 5 4 1 1 1 1 1 3 5 4 2 5 4 3 5 3 5 9 10 7 7 8 12 15 16 16 15 14 14
17 14 14 12 9 9 8 9 11 12 12 11 6 4 5 4 3 2 4 3 2 3 2 2 4 5 6 5 5 6 6 5 5 5 4 4 6 5 5 6 4 2 3 1 1 2 1 2 7 7 4 5 5 2 1 2 3 4 5 5 5 2 2 3 2 0 2 4 3 1 2 2 3 3 3 6 7 7 7 7 7 7 11 13 14 14 14 14
15 15 15 15 14 13 12 12 11 9 10 6 3 5 7 5 2 3 3 2 2 3 3 3 4 7 8 6 2 2 6 5 5 6 5 3 5 5 5 9 10 3 2 2 2 2 3 1 5 5 3 5 5 2 2 3 2 2 4 5 5 5 4 3 3 3 3 3 2 3 2 3 3 3 1 4 5 4 7 9 8 5 6 10 11 11 12 13
12 14 17 19 19 16 15 14 10 7 7 5 6 6 7 3 3 3 3 3 3 3 4 4 4 6 6 4 4 3 4 3 4 7 7 5 4 4 4 6 9 5 3 3 2 1 3 2 5 5 3 3 5 3 1 3 3 2 2 5 4 4 4 2 3 5 4 3 0 1 3 3 4 3 4 8 7 8 11 12 12 11 6 5 9 10 12 13
8 12 16 21 23 20 17 14 10 7 5 5 7 6 3 1 2 2 2 3 2 3 4 5 6 6 4 3 5 7 5 4 3 4 5 5 4 5 5 4 6 6 4 3 1 2 2 1 6 7 5 5 4 3 1 4 2 1 3 3 3 3 5 4 1 1 3 5 3 2 2 4 2 1 9 14 13 14 16 16 14 13 11 4 7 11 12 13
7 7 11 20 27 22 15 13 11 9 4 6 8 4 1 1 1 2 3 3 3 2 3 4 4 3 3 3 4 7 6 4 4 4 3 3 3 5 7 4 3 5 3 2 1 0 2 1 5 6 5 7 5 1 0 3 2 2 2 2 3 2 4 3 2 2 4 4 2 2 2 4 4 1 9 17 17 17 17 16 14 13 13 9 5 8 11 13
7 3 6 19 27 20 13 14 12 7 4 7 8 4 2 2 2 2 4 4 2 3 5 3 1 2 2 2 3 7 5 2 4 4 2 3 2 3 5 4 3 7 7 3 2 1 2 1 4 3 2 8 7 4 2 6 6 4 2 1 1 3 2 1 2 2 2 3 1 3 2 3 4 4 9 15 16 17 17 15 14 14 14 11 9 8 10 12
7 3 3 19 25 15 12 13 8 6 7 6 5 3 2 2 3 4 4 2 1 4 5 2 2 3 4 3 1 5 6 4 3 3 2 2 1 2 5 2 4 8 8 4 3 1 1 3 2 6 5 5 6 6 3 6 7 5 4 4 3 2 2 1 2 3 2 3 3 1 3 3 3 5 8 10 12 14 15 14 13 13 14 12 11 10 9 11
6 3 3 21 21 8 12 15 9 7 6 4 2 2 2 1 3 7 7 5 4 3 3 3 3 3 3 4 2 3 6 5 3 3 2 2 1 2 5 4 4 7 6 4 4 2 1 3 1 7 8 4 3 4 3 3 5 5 6 6 5 3 1 2 2 2 3 3 3 3 3 2 4 4 5 8 10 11 12 13 11 11 14 13 13 13 9 11
4 3 5 22 17 6 12 14 8 4 3 3 2 1 3 3 3 7 9 7 6 4 4 4 4 4 2 3 4 2 3 4 4 3 2 3 2 1 4 5 4 5 3 4 4 3 2 2 2 3 5 4 2 2 2 5 6 5 5 4 3 3 3 3 2 2 2 3 2 4 4 0 3 4 5 7 9 10 11 12 11 12 14 14 14 15 11 6
5 3 7 20 15 11 14 8 2 3 3 2 2 1 3 4 3 6 7 6 6 5 5 4 4 4 3 3 3 3 3 3 4 3 2 2 2 0 4 6 5 4 1 3 2 2 1 2 3 2 2 0 2 2 3 5 7 7 6 4 2 2 3 3 2 1 3 3 1 2 4 2 1 4 5 7 9 10 12 11 11 12 13 15 16 17 16 10
3 1 8 20 12 10 12 5 3 5 3 1 1 2 4 3 3 5 5 6 5 4 5 5 3 4 4 3 3 3 3 3 3 3 2 2 2 2 6 8 6 3 3 2 2 2 1 2 3 2 3 4 4 3 4 3 4 5 5 5 3 3 2 1 3 2 2 3 2 2 4 3 2 4 6 7 9 10 11 12 12 11 12 15 16 16 16 16
2 2 5 19 15 11 8 3 2 5 3 3 4 4 5 4 4 5 5 5 4 3 4 4 3 4 3 3 3 3 2 3 3 3 2 2 2 4 6 8 7 5 3 2 2 1 1 2 3 3 3 4 5 4 4 4 4 3 3 5 5 5 5 2 1 2 2 1 1 3 4 3 3 4 7 9 11 11 12 13 12 11 12 13 14 15 15 16
3 0 3 13 19 13 5 3 4 5 3 4 5 4 4 3 3 4 5 5 4 3 4 2 2 3 3 4 5 5 5 4 2 2 2 2 3 4 6 9 8 4 5 7 5 1 2 2 3 4 3 1 1 1 2 3 3 2 2 5 6 7 7 3 2 3 2 0 0 3 2 4 4 6 10 11 12 12 13 14 12 12 12 12 12 12 13 14
3 3 2 7 11 8 3 1 4 4 3 3 4 4 4 3 2 3 4 4 4 4 4 2 2 3 5 6 6 6 8 6 4 2 2 3 3 3 4 7 8 8 10 13 10 3 3 2 3 5 5 4 5 4 3 2 3 2 3 6 6 6 5 3 3 2 1 1 2 2 2 3 7 9 11 10 10 11 11 13 13 12 13 13 11 11 12 12
3 2 1 2 4 4 4 5 4 3 2 3 2 2 3 3 2 4 4 3 2 4 4 3 4 4 4 5 5 4 5 6 5 4 2 2 2 3 4 4 7 11 13 12 8 3 4 3 4 6 4 2 4 3 4 3 1 3 4 5 5 6 5 3 2 3 3 3 3 5 1 4 7 8 9 8 8 8 9 11 12 11 11 11 10 13 15 15
3 2 1 1 1 1 2 3 4 5 5 3 3 2 3 4 3 3 2 2 3 3 3 3 6 5 4 4 4 2 2 4 5 3 1 2 2 4 5 4 5 9 10 7 6 4 5 2 2 4 2 2 1 3 4 2 1 2 3 4 4 5 4 1 3 5 5 4 4 6 1 3 5 7 7 7 7 7 7 9 9 10 11 11 12 14 16 16
2 2 1 1 3 2 1 2 3 6 7 5 3 3 3 4 4 2 1 2 4 4 3 4 3 4 3 3 5 4 2 2 2 2 1 1 3 3 3 3 3 6 6 5 4 3 4 1 2 3 2 3 4 3 3 3 3 3 4 5 5 5 5 5 5 5 5 6 7 7 4 2 3 5 5 4 5 5 5 6 8 10 13 14 14 14 14 15
2 2 1 3 4 1 1 3 3 5 5 4 3 3 2 3 3 3 2 3 1 3 3 5 2 1 3 4 6 4 4 6 5 2 3 2 2 1 0 1 1 4 6 3 3 3 3 1 2 3 3 3 4 4 3 3 2 3 5 6 6 5 5 4 4 3 3 5 5 5 4 1 1 4 4 3 3 4 6 8 10 11 13 14 13 14 14 14
3 2 2 4 3 4 4 3 3 4 4 3 2 2 3 3 2 1 2 3 2 1 1 5 5 2 3 5 6 3 4 7 7 6 7 5 3 3 1 1 3 1 4 2 2 3 3 1 2 4 4 2 2 3 5 4 2 3 4 5 5 3 2 3 3 2 1 2 2 1 2 2 2 4 3 2 3 6 7 8 8 8 11 12 13 14 14 13
4 2 2 4 2 3 3 2 3 4 1 2 1 1 2 2 3 1 2 3 4 3 1 6 6 3 4 5 4 0 4 7 6 6 5 4 3 3 2 2 4 3 1 2 1 2 2 3 1 3 2 3 3 3 4 3 4 2 2 2 3 3 3 4 2 4 3 1 1 2 2 2 3 3 4 4 5 6 6 6 6 7 9 10 11 12 12 13
Wind_Direction
350 349 347 346 346 345 343 343 344 345 348 348 347 347 348 346 344 343 341 340 341 341 340 333 328 323 307 293 288 286 294 290 285 268 242 258 253 226 215 193 183 169 160 167 167 153 130 137 149 144 153 162 209 156 160 195 201 177 223 236 261 247 224 225 217 187 141 149 158 178 188 146 143 139 162 112 70 85 80 59 79 64 84 110 121 134 142 143
349 347 345 344 343 342 341 340 341 342 343 345 345 345 346 345 344 344 339 337 338 339 345 339 334 326 313 303 295 296 301 299 292 265 253 260 250 213 200 182 178 174 165 168 170 156 139 152 161 144 134 136 213 157 149 172 183 212 252 245 246 223 225 239 200 166 135 146 154 177 186 153 147 146 174 148 122 125 106 96 100 92 101 114 126 138 144 144
347 345 344 343 341 341 339 339 339 339 341 343 343 343 345 343 342 342 337 337 335 335 345 347 345 339 330 316 313 320 306 316 297 259 270 260 220 201 179 172 178 177 172 173 173 163 155 159 157 140 120 132 199 159 168 177 175 211 236 248 246 227 253 280 188 176 150 142 149 175 170 147 151 150 174 141 133 140 133 138 129 124 131 132 137 144 146 147
346 344 343 342 340 340 338 337 337 336 339 342 342 342 342 342 342 339 335 335 334 328 329 348 351 348 347 342 342 336 316 335 292 242 326 297 199 183 166 166 174 174 174 174 169 164 153 147 145 130 110 130 212 156 181 204 183 195 199 232 248 226 279 294 157 130 133 142 148 159 149 146 152 148 162 137 134 162 166 167 149 144 146 143 147 149 150 152
344 343 342 340 339 338 337 337 337 337 339 340 342 342 340 340 339 336 332 329 331 323 308 322 343 344 344 351 353 335 342 44 293 276 326 294 182 170 160 163 171 170 170 168 157 147 141 138 135 113 97 132 162 151 207 221 226 253 227 246 267 279 297 287 123 119 125 125 131 152 158 147 136 138 168 156 152 180 172 167 154 148 150 151 151 150 155 156
343 342 341 339 338 337 336 338 339 340 341 341 342 341 339 337 335 334 328 321 323 317 297 287 318 332 326 339 348 342 44 199 288 304 332 221 170 162 154 163 167 160 163 160 147 135 133 134 139 136 120 120 169 187 229 216 211 265 260 256 261 261 265 243 129 141 140 136 146 162 159 131 136 150 173 171 145 132 143 140 150 152 152 152 149 152 159 160
342 341 340 339 338 337 338 339 341 343 342 343 343 340 337 334 333 329 323 313 309 310 290 275 295 312 312 322 338 16 86 266 275 251 12 154 161 155 153 163 159 151 157 153 142 138 136 142 157 146 129 140 195 203 233 217 199 235 267 269 260 250 249 234 150 158 158 153 149 132 146 156 159 155 162 166 103 103 129 127 144 150 151 150 149 157 161 160
341 339 339 338 337 337 339 340 342 344 343 343 341 339 336 332 330 324 319 303 295 302 278 261 280 292 301 300 322 15 314 266 238 160 139 152 155 151 155 164 159 155 156 156 153 146 139 149 166 146 136 187 193 179 203 220 208 222 246 264 261 250 249 235 163 157 153 142 124 124 159 180 162 134 150 154 122 130 129 126 144 147 152 153 154 160 161 159
340 338 338 337 336 337 339 340 343 344 344 342 340 337 332 329 326 321 312 291 284 288 268 248 270 279 245 190 83 352 272 277 188 162 152 157 157 157 162 165 167 164 155 160 160 152 150 159 174 161 157 193 187 178 183 187 219 215 236 259 261 262 256 216 166 162 154 141 134 140 151 149 123 121 135 144 139 146 130 133 149 152 158 158 158 164 163 161
340 338 338 337 336 339 341 342 344 344 344 342 339 335 331 327 323 318 303 275 269 277 257 232 253 209 197 190 95 158 269 325 172 163 158 163 161 163 169 168 171 170 160 164 164 162 161 159 173 151 143 179 182 219 191 181 235 226 245 265 259 268 266 202 168 161 138 138 152 144 130 113 165 175 165 153 147 147 134 143 156 158 164 160 161 166 165 165
340 337 337 336 337 340 343 344 345 345 344 342 339 335 331 325 319 312 293 248 249 267 232 225 236 173 197 164 116 196 293 355 173 162 162 170 168 171 178 174 174 174 166 165 176 178 162 157 169 127 110 204 189 235 220 217 274 268 272 289 277 290 290 178 149 152 129 133 161 124 98 88 260 285 204 155 149 153 143 149 163 165 167 163 162 165 165 167
339 336 337 338 339 342 343 344 345 345 344 342 340 338 332 323 315 299 275 231 237 239 203 217 185 165 185 72 207 214 59 40 140 164 168 174 177 182 184 181 181 180 175 168 185 185 170 166 169 158 231 185 164 239 264 266 289 270 265 294 295 345 12 119 124 153 136 131 153 118 87 224 224 239 142 146 150 153 151 154 167 169 169 166 164 166 166 167
337 336 337 339 342 343 343 344 345 346 345 344 344 340 330 318 305 279 250 218 219 194 181 185 161 171 172 287 239 211 188 16 94 172 175 178 185 187 187 187 187 187 185 179 185 188 181 180 166 179 231 83 201 255 315 301 304 282 252 178 297 356 11 101 110 150 116 122 158 137 125 234 225 221 135 148 155 150 157 163 170 171 172 170 166 168 169 169
335 336 338 341 343 343 344 345 346 346 346 347 346 340 330 320 299 257 222 207 194 170 170 153 151 169 187 260 268 193 208 272 199 186 180 181 181 183 192 192 189 189 190 184 184 193 192 198 182 39 248 161 228 305 338 330 345 319 299 51 3 345 293 30 111 155 102 151 175 142 273 254 233 207 153 157 161 155 163 168 174 176 174 173 170 170 171 174
334 338 341 342 343 343 344 345 346 347 347 349 349 344 339 336 306 235 201 192 172 161 160 143 155 171 318 277 278 137 187 202 205 202 192 187 176 177 198 193 191 192 192 185 167 194 194 196 307 61 274 282 332 346 346 338 347 359 352 312 329 183 275 358 126 168 121 168 197 161 255 270 254 188 156 162 166 161 168 170 178 182 177 176 174 172 174 179
336 340 341 342 343 342 342 344 345 347 348 351 356 358 360 355 345 168 168 164 156 156 148 137 169 183 319 286 253 140 201 213 235 213 199 197 187 178 180 173 173 181 190 191 179 183 179 174 145 178 260 308 217 22 6 354 346 353 93 232 270 146 281 336 139 183 138 136 201 233 245 281 289 180 155 164 171 166 171 175 180 185 183 179 176 175 176 178
339 340 341 342 342 341 342 343 345 347 347 355 9 25 28 39 87 106 120 130 136 138 121 120 157 169 269 279 244 144 224 240 299 218 198 201 195 169 151 146 138 153 163 186 197 183 158 167 173 172 259 213 150 100 59 331 303 324 20 131 263 203 175 240 188 198 152 135 193 230 247 270 322 160 162 170 173 169 176 182 183 186 190 187 178 176 179 180
338 339 341 341 340 340 341 341 345 346 346 358 29 60 59 77 93 101 115 120 120 111 73 75 114 120 263 286 284 268 280 294 333 252 195 194 190 172 148 136 123 131 126 129 181 160 153 185 150 143 237 175 157 124 157 225 193 184 112 99 347 335 38 201 223 197 167 156 190 203 244 259 270 138 173 181 177 177 182 183 185 187 191 196 187 180 183 184
337 338 340 339 340 340 339 341 345 344 344 358 48 97 79 84 86 96 119 122 119 120 354 209 158 123 235 271 296 303 305 301 315 238 187 178 181 177 140 127 124 120 128 116 131 167 162 122 138 185 207 184 176 163 185 208 162 146 147 125 115 359 306 233 245 210 177 176 202 192 224 243 218 166 184 190 184 183 183 182 187 190 192 199 199 188 187 189
338 338 338 338 338 338 338 340 344 342 344 359 45 124 67 47 41 23 116 152 199 221 237 202 189 241 283 266 301 319 321 314 277 178 176 172 169 168 139 117 109 91 134 151 158 184 154 150 198 198 175 173 187 187 196 199 154 136 126 118 143 183 282 258 258 233 180 177 228 212 221 239 220 189 189 188 189 188 184 185 191 192 193 198 202 198 191 194
338 337 337 338 337 337 337 339 343 343 345 4 40 104 86 63 50 305 301 287 252 234 239 225 201 237 269 265 299 332 350 355 333 19 171 172 156 156 178 87 104 104 172 158 145 130 147 192 205 173 159 173 184 189 196 189 164 150 142 131 162 197 255 255 247 239 178 178 242 220 226 246 224 198 191 183 188 196 193 192 194 194 194 197 202 202 194 190
338 337 337 337 336 335 337 339 342 344 351 18 57 92 138 40 352 264 244 306 287 248 230 241 231 254 267 268 270 269 43 22 328 323 174 158 146 162 176 74 125 165 186 135 121 135 183 214 190 159 167 162 139 159 169 181 177 160 141 128 220 240 273 281 289 300 168 183 262 207 210 243 227 198 191 187 192 201 200 197 194 192 193 197 202 202 191 184
338 337 337 335 335 334 337 339 340 349 359 20 82 88 42 356 356 325 167 272 293 285 219 215 214 245 274 279 237 171 114 153 227 294 193 144 144 177 132 106 147 147 141 146 143 158 194 238 198 170 148 141 166 150 133 107 227 162 142 136 224 252 291 285 308 357 154 183 237 173 206 253 229 201 200 196 197 200 199 199 198 196 197 200 202 201 192 187
339 338 337 334 335 335 337 340 344 6 351 355 109 69 1 352 359 22 130 220 298 295 236 204 194 212 248 280 172 145 135 191 179 261 197 142 119 158 141 145 144 135 176 170 148 159 216 244 180 150 142 156 199 188 130 143 285 229 174 168 203 222 208 228 285 4 84 221 186 110 7 301 210 197 212 199 196 199 193 194 199 204 204 199 198 202 200 194
341 340 338 336 336 334 336 342 27 359 346 122 113 16 352 351 348 17 86 54 320 294 260 213 219 216 231 202 164 172 142 197 213 237 192 145 133 135 166 160 126 170 197 149 139 169 246 242 134 126 150 156 178 234 181 169 238 290 216 192 191 195 218 245 331 23 20 313 272 117 46 304 256 209 213 183 187 197 191 195 201 203 201 195 196 201 201 199
344 342 339 337 336 335 340 359 351 348 353 131 43 344 346 348 335 156 106 45 346 290 311 98 190 217 249 260 161 153 66 325 251 274 101 142 142 119 131 192 78 178 182 139 146 188 245 217 134 139 167 157 174 233 210 162 161 282 245 199 187 186 218 247 21 67 19 272 281 169 156 270 306 254 217 178 188 198 191 199 203 200 199 198 199 199 198 198
345 344 339 337 337 338 340 313 326 342 67 82 342 337 343 343 333 144 97 34 10 290 310 255 271 123 266 301 103 100 110 255 319 38 43 45 36 91 116 184 168 150 171 118 137 220 177 132 114 135 158 165 189 232 210 163 145 242 242 181 172 187 213 227 181 180 224 253 320 343 139 224 305 273 219 172 181 202 203 206 205 201 201 200 202 200 196 197
348 345 338 335 338 336 317 302 323 347 74 342 332 336 342 338 313 124 85 59 347 326 131 244 290 305 297 359 63 94 197 241 65 344 5 40 26 61 115 185 180 165 156 117 160 251 187 153 179 170 163 188 210 218 191 161 161 234 219 161 163 185 193 191 180 207 238 49 315 302 125 164 277 283 234 162 177 207 211 210 205 202 201 201 203 201 198 198
352 348 340 339 347 353 335 318 325 355 350 344 341 337 337 341 99 75 76 110 335 321 251 317 329 313 337 29 32 31 343 30 97 274 341 27 18 33 117 198 155 136 100 110 167 240 246 186 182 150 156 207 223 217 175 163 191 217 181 154 141 151 144 130 166 194 69 81 254 251 174 160 274 287 148 153 199 220 215 212 207 204 203 201 202 201 199 197
355 352 345 347 357 12 351 326 339 357 346 346 341 332 333 53 79 62 63 79 6 297 287 348 304 328 45 71 20 9 31 16 22 31 24 17 14 29 51 307 79 95 30 49 123 240 297 256 157 127 171 214 221 219 185 183 194 169 133 118 86 64 63 68 94 99 72 282 252 230 188 142 307 280 196 178 220 217 206 208 206 206 206 203 202 200 198 196
356 354 348 349 353 353 345 340 347 345 340 339 336 336 10 72 60 85 90 16 352 325 355 354 305 15 69 102 62 2 36 21 358 30 39 9 22 31 18 360 37 57 18 6 358 310 335 12 106 211 229 48 61 270 243 199 176 141 102 98 109 347 29 45 3 56 135 257 268 226 161 119 173 259 248 261 285 281 228 215 209 205 205 203 200 199 198 195
353 351 345 342 339 326 321 327 326 327 329 329 335 2 83 50 32 76 306 328 355 336 350 327 313 27 78 94 55 8 29 38 8 38 56 26 38 50 44 23 5 80 71 301 309 329 323 352 329 303 342 35 45 341 343 19 92 129 127 109 128 285 17 133 287 163 193 250 270 190 129 121 228 248 285 313 317 316 295 265 241 218 208 205 200 197 197 194
350 351 350 346 339 327 322 319 314 316 322 325 342 52 82 75 41 349 310 336 1 329 344 335 351 52 72 66 39 15 40 40 356 26 52 49 56 54 42 28 14 114 149 204 27 22 282 299 350 355 349 15 53 81 359 25 74 133 153 137 149 159 123 192 231 118 222 248 279 277 167 197 271 266 338 349 328 317 325 320 294 245 217 211 206 200 196 194
353 359 4 4 359 349 341 332 317 315 329 346 51 63 63 69 8 338 337 306 286 333 356 335 352 47 59 51 8 16 61 47 14 40 41 40 50 18 1 14 10 22 105 77 67 69 132 181 353 9 335 350 35 59 207 178 138 176 180 144 150 166 151 187 208 162 184 224 312 324 201 190 204 184 90 359 314 328 5 357 344 320 240 209 204 204 198 197
3 19 23 17 8 358 348 340 329 330 349 33 75 63 63 58 305 330 337 294 290 328 337 344 17 47 46 28 4 22 79 74 34 49 46 50 56 5 341 350 357 8 48 62 44 40 119 192 308 314 288 351 9 318 276 136 161 210 156 116 135 176 156 142 182 173 162 142 89 270 214 210 202 196 9 3 348 5 14 5 4 356 323 215 192 197 198 200
22 38 29 15 5 357 351 347 341 344 1 66 72 55 74 126 286 289 291 302 318 311 328 4 27 44 30 11 3 2 30 65 50 52 46 54 60 14 351 311 339 11 41 86 62 12 84 285 315 331 326 344 352 294 354 86 166 201 101 139 194 165 126 110 164 209 84 123 175 254 285 319 315 286 349 355 356 4 9 2 358 354 344 308 204 196 196 200
24 40 29 12 1 353 353 353 343 341 12 77 75 65 128 189 266 249 283 305 305 331 53 43 18 32 33 32 13 348 354 32 41 52 41 31 32 2 346 306 325 12 16 85 106 47 103 240 314 358 334 308 323 284 142 42 60 112 107 237 243 119 105 109 128 16 45 135 212 1 62 3 5 314 341 354 355 355 359 357 349 347 353 345 286 226 205 200
8 33 37 7 355 348 351 350 342 352 51 72 71 83 100 359 331 297 306 308 308 23 62 76 39 51 56 59 26 353 356 21 20 42 61 28 18 358 350 318 330 359 345 8 83 39 70 64 294 327 292 293 331 39 32 347 13 82 130 257 69 113 146 55 125 140 102 150 198 9 42 34 23 331 339 355 354 348 348 349 348 348 349 345 323 284 229 205
10 52 24 357 353 350 357 359 2 45 67 65 63 77 72 346 343 342 332 339 41 49 52 54 53 61 52 66 62 6 25 49 28 42 61 21 25 42 27 344 311 341 342 5 75 318 14 79 293 300 312 314 353 38 23 327 345 30 42 12 30 110 159 112 123 153 142 156 169 46 15 17 358 329 346 358 351 349 348 346 349 348 344 339 327 306 254 214
19 85 347 353 356 358 20 33 47 49 56 72 79 63 27 335 335 349 359 25 49 62 58 36 33 63 53 43 63 39 39 42 34 57 52 13 27 20 25 20 319 328 345 15 55 52 12 70 36 307 328 9 27 10 6 344 354 18 35 23 2 348 4 68 56 67 107 139 161 119 75 359 323 331 358 5 355 353 354 349 347 348 348 345 336 323 281 222
29 86 331 351 5 56 51 48 49 36 64 61 33 33 32 41 355 346 357 23 46 64 76 73 60 64 72 45 38 34 49 41 27 57 66 24 40 359 4 19 325 305 355 25 21 30 27 75 88 335 352 46 76 317 18 70 61 60 63 34 352 350 37 91 69 358 46 95 133 129 121 55 337 355 358 3 2 358 359 357 354 355 356 354 348 342 329 254
47 87 337 355 20 81 68 50 352 37 82 40 14 14 25 49 28 348 349 17 46 57 49 60 63 50 52 54 40 39 71 58 14 41 78 33 55 27 324 340 318 282 63 47 332 314 85 102 77 34 354 163 219 279 10 68 76 72 63 34 357 35 63 105 129 314 4 30 20 106 114 168 306 18 11 3 1 359 2 4 4 4 4 3 360 358 1 359
68 131 356 5 23 92 75 47 342 40 57 351 19 33 24 45 25 358 4 19 34 50 36 30 34 45 45 42 51 62 67 62 29 40 84 32 29 341 319 332 340 349 57 46 316 312 34 72 56 15 315 303 287 307 357 29 65 58 34 21 16 8 3 163 165 164 62 28 356 57 101 183 254 20 24 5 354 359 3 3 7 9 8 10 8 7 12 13
97 210 348 13 35 87 90 82 79 66 50 16 37 31 21 40 37 22 27 22 20 53 56 27 14 45 47 33 61 73 70 83 52 26 65 70 355 332 342 355 5 22 52 26 311 305 12 55 77 59 14 349 340 343 343 354 32 49 5 0 4 2 5 22 74 58 60 51 137 113 128 210 267 17 26 8 0 4 2 357 3 10 9 11 12 12 16 21
50 129 285 5 31 61 95 156 123 97 72 48 48 29 15 34 40 34 42 36 28 64 84 40 15 53 42 33 57 45 41 86 91 1 41 36 327 324 354 5 10 23 32 16 7 63 83 62 101 109 120 166 239 267 270 309 355 27 7 358 360 8 15 28 54 46 53 288 169 134 164 268 308 18 25 12 4 4 358 350 355 8 12 11 13 17 19 24
69 45 315 346 17 42 61 93 97 95 94 79 57 20 23 42 352 2 49 52 24 48 74 47 16 56 39 43 61 36 26 52 71 66 60 9 325 311 346 4 11 15 20 18 14 55 107 55 67 105 124 161 182 210 253 312 351 343 356 4 0 357 6 56 79 56 162 10 327 215 171 341 348 14 20 11 7 4 355 349 352 2 9 8 7 13 21 27
101 60 10 334 355 16 26 21 38 72 98 109 96 10 8 26 347 356 39 58 21 45 66 28 20 55 59 66 83 46 17 33 44 56 60 346 303 297 335 15 15 7 15 17 5 43 97 45 35 73 78 139 180 232 314 358 1 311 339 356 346 340 358 57 112 212 158 79 306 246 171 21 359 13 18 7 3 3 356 353 351 353 359 1 3 12 20 23
86 108 194 155 53 30 31 5 18 52 54 63 89 58 15 28 37 21 14 24 22 39 73 36 18 44 86 107 113 93 27 29 26 19 23 5 344 336 351 13 7 4 16 14 358 54 101 68 38 78 44 338 320 331 349 16 324 296 312 314 313 326 341 326 234 221 157 133 241 251 281 29 15 13 16 12 5 2 356 349 343 346 355 4 9 15 18 17
75 92 305 40 93 146 178 336 18 56 47 32 48 51 37 37 33 348 331 38 19 6 71 90 12 14 54 88 104 105 113 99 49 334 235 34 14 16 10 359 352 7 25 23 2 50 103 65 27 95 84 358 351 350 8 22 354 315 291 281 281 291 288 266 253 233 196 202 237 265 300 27 55 7 8 33 12 353 352 352 358 3 4 7 12 14 15 13
80 115 296 44 60 59 13 6 37 60 36 22 42 35 37 49 20 335 358 75 73 338 48 105 136 23 51 69 88 106 163 152 137 181 176 120 22 357 176 219 292 357 16 33 356 13 76 52 357 71 71 356 343 358 358 350 313 278 281 279 277 291 298 277 266 253 228 244 262 272 277 267 44 347 358 41 12 4 16 11 11 11 6 6 10 12 12 8
91 136 141 97 50 357 4 12 45 64 32 16 39 13 8 9 329 309 21 56 111 123 107 143 154 116 49 58 73 110 191 168 159 186 179 154 169 197 204 189 177 19 9 29 343 3 71 64 356 58 58 305 303 352 320 303 300 276 278 281 276 279 288 270 284 349 337 280 280 240 233 255 309 332 348 8 19 33 30 17 12 9 8 11 11 10 9 3
77 107 82 100 75 358 9 13 30 68 67 326 335 11 14 327 305 99 78 21 28 44 142 157 143 94 54 55 48 341 213 190 183 192 179 155 159 158 118 109 133 123 127 131 29 1 97 98 58 79 70 283 286 313 299 323 7 323 258 274 277 273 283 285 331 27 5 296 179 177 207 254 292 328 357 360 16 36 30 19 16 8 5 10 11 11 7 359